Location: Poughquag
(41.6090°N, 73.6820°W)
Time: 00:35:02
(UTC-04:00)

Transit 2A Rocket - Visible Passes

Search period start: 25 May 2024 00:00
Search period end: 04 June 2024 00:00
Orbit: 584 x 909 km, 66.7° (Epoch: 24 May)

Date Brightness Start Highest point End Pass type
(mag) Time Alt. Az. Time Alt. Az. Time Alt. Az.
25 May 7.3 02:21:11 10° ESE 02:21:39 10° E 02:22:07 10° E visible
25 May 4.8 03:59:48 20° SSW 04:03:06 88° WNW 04:08:22 10° NNE visible
26 May 5.4 03:17:01 29° S 03:19:10 50° ESE 03:24:11 10° NE visible
27 May 6.2 02:34:12 24° SE 02:35:24 27° ESE 02:39:41 10° NE visible
27 May 5.7 04:14:00 15° WSW 04:17:39 38° NW 04:22:37 10° NNE visible
28 May 7.0 01:51:20 14° ESE 01:51:46 14° ESE 01:54:27 10° ENE visible
28 May 5.0 03:31:08 30° SW 03:33:28 67° WNW 03:38:44 10° NNE visible
29 May 4.9 02:48:13 48° S 02:49:27 68° ESE 02:54:40 10° NE visible
29 May 6.8 04:28:55 10° W 04:32:33 20° NW 04:36:27 10° N visible
30 May 5.7 02:05:16 36° ESE 02:05:36 36° ESE 02:10:20 10° NE visible
30 May 6.2 03:45:03 17° W 03:48:08 31° NW 03:52:52 10° NNE visible
31 May 6.6 01:22:17 20° E 01:22:17 20° E 01:25:32 10° ENE visible
31 May 5.3 03:02:04 34° WSW 03:03:51 51° NW 03:09:04 10° NNE visible
31 May 7.4 04:46:19 10° NW 04:47:47 11° NNW 04:49:17 10° NNW visible
01 Jun 4.7 02:19:02 66° SSW 02:19:45 90° E 02:25:05 10° NNE visible
01 Jun 7.1 03:59:55 10° WNW 04:03:08 17° NW 04:06:31 10° N visible
02 Jun 5.3 01:35:58 49° ESE 01:35:58 49° ESE 01:40:53 10° NE visible
02 Jun 6.6 03:15:45 16° W 03:18:37 25° NW 03:23:04 10° N visible
03 Jun 6.3 00:52:52 25° E 00:52:52 25° E 00:56:20 10° NE visible
03 Jun 5.8 02:32:38 31° W 02:34:16 40° NW 02:39:21 10° NNE visible
